Wetterdaten: Woche 28.04.14 - 04.05.14 (KW18)
Datum Zeit Temperatur Luftfeuchte Luftdruck Niederschlag Windrichtung Sonnenschein Solar Wind
28.04.2014 00:00 8,2 C 98 % 1008,8 hPa 0,8 l/m SW 0,00 h 0 W/m 7,6 km/h (2 Bft)
28.04.2014 01:00 7,8 C 98 % 1008,7 hPa 0,4 l/m SW 0,00 h 0 W/m 4,9 km/h (1 Bft)
28.04.2014 02:00 7,5 C 99 % 1008,5 hPa 0,0 l/m SW 0,00 h 0 W/m 6,4 km/h (2 Bft)
28.04.2014 03:00 7,2 C 99 % 1008,3 hPa 0,0 l/m SW 0,00 h 0 W/m 5,9 km/h (2 Bft)
28.04.2014 04:00 6,9 C 99 % 1008,0 hPa 0,2 l/m SW 0,00 h 0 W/m 6,3 km/h (2 Bft)
28.04.2014 05:00 6,9 C 99 % 1007,8 hPa 0,0 l/m SW 0,00 h 0 W/m 4,8 km/h (1 Bft)
28.04.2014 06:00 6,9 C 99 % 1008,1 hPa 0,0 l/m SW 0,00 h 6 W/m 7,5 km/h (2 Bft)
28.04.2014 07:00 7,1 C 99 % 1008,2 hPa 0,4 l/m SW 0,00 h 18 W/m 6,1 km/h (2 Bft)
28.04.2014 08:00 7,3 C 99 % 1008,3 hPa 0,0 l/m N 0,00 h 26 W/m 1,9 km/h (1 Bft)
28.04.2014 09:00 7,7 C 99 % 1008,4 hPa 0,0 l/m SW 0,00 h 63 W/m 2,3 km/h (1 Bft)
28.04.2014 10:00 8,2 C 98 % 1008,3 hPa 0,0 l/m SW 0,00 h 68 W/m 3,1 km/h (1 Bft)
28.04.2014 11:00 8,5 C 97 % 1008,4 hPa 0,0 l/m SW 0,00 h 60 W/m 6,7 km/h (2 Bft)
28.04.2014 12:00 8,6 C 98 % 1008,4 hPa 0,4 l/m SW 0,00 h 105 W/m 6,3 km/h (2 Bft)
28.04.2014 13:00 8,7 C 96 % 1008,3 hPa 0,0 l/m N 0,00 h 91 W/m 2,8 km/h (1 Bft)
28.04.2014 14:00 8,8 C 96 % 1008,3 hPa 0,2 l/m SW 0,00 h 77 W/m 1,6 km/h (1 Bft)
28.04.2014 15:00 9,2 C 96 % 1008,1 hPa 0,0 l/m N 0,00 h 69 W/m 1,5 km/h (1 Bft)
28.04.2014 16:00 9,3 C 95 % 1008,0 hPa 0,0 l/m SW 0,00 h 65 W/m 1,2 km/h (1 Bft)
28.04.2014 17:00 9,4 C 94 % 1008,0 hPa 0,0 l/m N 0,00 h 45 W/m 2,4 km/h (1 Bft)
28.04.2014 18:00 9,4 C 94 % 1008,4 hPa 0,0 l/m SW 0,00 h 23 W/m 2,1 km/h (1 Bft)
28.04.2014 19:00 8,8 C 96 % 1008,8 hPa 0,4 l/m SW 0,00 h 9 W/m 0,5 km/h (0 Bft)
28.04.2014 20:00 8,7 C 98 % 1009,4 hPa 1,0 l/m N 0,00 h 0 W/m 0,0 km/h (0 Bft)
28.04.2014 21:00 8,6 C 98 % 1009,8 hPa 0,2 l/m N 0,00 h 0 W/m 0,1 km/h (0 Bft)
28.04.2014 22:00 8,7 C 99 % 1010,3 hPa 0,0 l/m N 0,00 h 0 W/m 0,0 km/h (0 Bft)
28.04.2014 23:00 8,7 C 99 % 1010,3 hPa 0,2 l/m N 0,00 h 0 W/m 0,5 km/h (0 Bft)
29.04.2014 00:00 8,7 C 99 % 1010,6 hPa 0,8 l/m SW 0,00 h 0 W/m 4,3 km/h (1 Bft)
29.04.2014 01:00 8,4 C 99 % 1010,7 hPa 1,0 l/m SW 0,00 h 0 W/m 5,5 km/h (1 Bft)
29.04.2014 02:00 8,0 C 99 % 1010,7 hPa 1,0 l/m SW 0,00 h 0 W/m 9,8 km/h (2 Bft)
29.04.2014 03:00 7,6 C 99 % 1010,8 hPa 0,0 l/m SW 0,00 h 0 W/m 7,3 km/h (2 Bft)
29.04.2014 04:00 7,0 C 99 % 1011,0 hPa 0,2 l/m S-SW 0,00 h 0 W/m 8,6 km/h (2 Bft)
29.04.2014 05:00 6,8 C 99 % 1010,9 hPa 0,0 l/m S-SW 0,00 h 0 W/m 7,8 km/h (2 Bft)
29.04.2014 06:00 6,7 C 99 % 1011,1 hPa 0,0 l/m S-SW 0,00 h 8 W/m 8,0 km/h (2 Bft)
29.04.2014 07:00 6,7 C 99 % 1011,7 hPa 0,0 l/m S-SW 0,00 h 16 W/m 8,9 km/h (2 Bft)
29.04.2014 08:00 6,8 C 99 % 1012,0 hPa 0,0 l/m S-SW 0,00 h 32 W/m 10,9 km/h (2 Bft)
29.04.2014 09:00 7,2 C 99 % 1012,1 hPa 0,0 l/m S-SW 0,00 h 54 W/m 10,9 km/h (2 Bft)
29.04.2014 10:00 7,6 C 99 % 1012,2 hPa 0,0 l/m S-SW 0,00 h 85 W/m 8,4 km/h (2 Bft)
29.04.2014 11:00 8,2 C 99 % 1012,3 hPa 0,0 l/m S-SW 0,00 h 127 W/m 11,7 km/h (2 Bft)
29.04.2014 12:00 9,0 C 98 % 1012,3 hPa 0,0 l/m S-SW 0,00 h 133 W/m 8,6 km/h (2 Bft)
29.04.2014 13:00 9,3 C 97 % 1012,2 hPa 0,0 l/m S-SW 0,00 h 128 W/m 11,0 km/h (2 Bft)
29.04.2014 14:00 10,7 C 94 % 1011,9 hPa 0,0 l/m SW 0,25 h 411 W/m 9,5 km/h (2 Bft)
29.04.2014 15:00 13,1 C 85 % 1011,1 hPa 0,0 l/m SW 0,50 h 509 W/m 9,7 km/h (2 Bft)
29.04.2014 16:00 13,8 C 83 % 1010,3 hPa 0,0 l/m SW 0,83 h 596 W/m 11,8 km/h (2 Bft)
29.04.2014 17:00 14,1 C 79 % 1009,8 hPa 0,0 l/m S-SW 0,83 h 414 W/m 11,0 km/h (2 Bft)
29.04.2014 18:00 13,8 C 80 % 1009,6 hPa 0,0 l/m S-SW 0,67 h 232 W/m 9,8 km/h (2 Bft)
29.04.2014 19:00 12,7 C 85 % 1009,5 hPa 0,0 l/m SW 0,00 h 43 W/m 9,0 km/h (2 Bft)
29.04.2014 20:00 11,4 C 90 % 1009,8 hPa 0,0 l/m SW 0,00 h 6 W/m 4,9 km/h (1 Bft)
29.04.2014 21:00 10,7 C 91 % 1009,9 hPa 0,0 l/m N 0,00 h 0 W/m 1,5 km/h (1 Bft)
29.04.2014 22:00 10,2 C 91 % 1009,9 hPa 0,0 l/m N 0,00 h 0 W/m 1,6 km/h (1 Bft)
29.04.2014 23:00 9,8 C 93 % 1009,8 hPa 0,0 l/m N 0,00 h 0 W/m 0,0 km/h (0 Bft)
30.04.2014 00:00 9,2 C 95 % 1009,3 hPa 0,0 l/m N 0,00 h 0 W/m 0,1 km/h (0 Bft)
30.04.2014 01:00 8,6 C 97 % 1008,9 hPa 0,0 l/m N 0,00 h 0 W/m 0,0 km/h (0 Bft)
30.04.2014 02:00 8,4 C 97 % 1008,6 hPa 0,0 l/m N 0,00 h 0 W/m 0,0 km/h (0 Bft)
30.04.2014 03:00 8,3 C 98 % 1008,4 hPa 0,0 l/m N 0,00 h 0 W/m 0,0 km/h (0 Bft)
30.04.2014 04:00 8,6 C 98 % 1007,9 hPa 0,0 l/m N 0,00 h 0 W/m 0,5 km/h (0 Bft)
30.04.2014 05:00 8,7 C 98 % 1007,4 hPa 0,0 l/m SW 0,00 h 0 W/m 0,4 km/h (0 Bft)
30.04.2014 06:00 8,6 C 98 % 1007,1 hPa 1,4 l/m N 0,00 h 10 W/m 0,1 km/h (0 Bft)
30.04.2014 07:00 9,1 C 99 % 1007,1 hPa 0,0 l/m N 0,00 h 31 W/m 0,4 km/h (0 Bft)
30.04.2014 08:00 9,8 C 99 % 1007,2 hPa 0,0 l/m SW 0,00 h 70 W/m 3,6 km/h (1 Bft)
30.04.2014 09:00 10,5 C 98 % 1007,2 hPa 0,0 l/m SW 0,00 h 94 W/m 4,4 km/h (1 Bft)
30.04.2014 10:00 11,3 C 96 % 1007,2 hPa 0,0 l/m SW 0,00 h 113 W/m 5,9 km/h (2 Bft)
30.04.2014 11:00 11,9 C 94 % 1007,2 hPa 0,0 l/m W 0,00 h 97 W/m 6,7 km/h (2 Bft)
30.04.2014 12:00 11,6 C 95 % 1007,3 hPa 1,4 l/m W-SW 0,00 h 52 W/m 6,2 km/h (2 Bft)
30.04.2014 13:00 10,7 C 96 % 1007,5 hPa 1,8 l/m SW 0,00 h 54 W/m 13,3 km/h (3 Bft)
30.04.2014 14:00 9,3 C 98 % 1008,2 hPa 1,6 l/m SW 0,00 h 83 W/m 16,8 km/h (3 Bft)
30.04.2014 15:00 10,0 C 97 % 1008,1 hPa 0,0 l/m SW 0,00 h 210 W/m 20,8 km/h (4 Bft)
30.04.2014 16:00 9,6 C 96 % 1008,5 hPa 0,0 l/m SW 0,00 h 55 W/m 14,9 km/h (3 Bft)
30.04.2014 17:00 9,1 C 96 % 1008,8 hPa 0,0 l/m SW 0,00 h 47 W/m 14,9 km/h (3 Bft)
30.04.2014 18:00 8,8 C 97 % 1009,2 hPa 0,0 l/m SW 0,00 h 19 W/m 14,5 km/h (3 Bft)
30.04.2014 19:00 8,5 C 97 % 1009,6 hPa 0,0 l/m W-SW 0,00 h 10 W/m 16,6 km/h (3 Bft)
30.04.2014 20:00 8,5 C 97 % 1010,1 hPa 0,0 l/m SW 0,00 h 5 W/m 14,0 km/h (3 Bft)
30.04.2014 21:00 8,5 C 97 % 1010,9 hPa 0,0 l/m SW 0,00 h 0 W/m 9,1 km/h (2 Bft)
30.04.2014 22:00 8,4 C 98 % 1011,6 hPa 0,0 l/m SW 0,00 h 0 W/m 8,6 km/h (2 Bft)
30.04.2014 23:00 8,3 C 98 % 1011,9 hPa 0,0 l/m S-SW 0,00 h 0 W/m 10,1 km/h (2 Bft)
01.05.2014 00:00 8,5 C 99 % 1012,0 hPa 0,0 l/m S-SW 0,00 h 0 W/m 6,4 km/h (2 Bft)
01.05.2014 01:00 8,4 C 99 % 1011,8 hPa 0,0 l/m S-SW 0,00 h 0 W/m 11,3 km/h (2 Bft)
01.05.2014 02:00 8,5 C 99 % 1011,6 hPa 0,0 l/m S-SW 0,00 h 0 W/m 7,9 km/h (2 Bft)
01.05.2014 03:00 8,6 C 99 % 1011,4 hPa 0,0 l/m S-SW 0,00 h 0 W/m 9,0 km/h (2 Bft)
01.05.2014 04:00 8,5 C 99 % 1011,4 hPa 0,0 l/m S-SW 0,00 h 0 W/m 8,1 km/h (2 Bft)
01.05.2014 05:00 8,4 C 99 % 1011,1 hPa 0,0 l/m S-SW 0,00 h 0 W/m 7,9 km/h (2 Bft)
01.05.2014 06:00 8,4 C 99 % 1010,9 hPa 0,0 l/m S-SW 0,00 h 10 W/m 9,9 km/h (2 Bft)
01.05.2014 07:00 8,5 C 100 % 1011,2 hPa 0,0 l/m S-SW 0,00 h 17 W/m 7,0 km/h (2 Bft)
01.05.2014 08:00 8,5 C 100 % 1011,5 hPa 0,0 l/m S-SW 0,00 h 33 W/m 9,4 km/h (2 Bft)
01.05.2014 09:00 9,5 C 99 % 1011,7 hPa 0,0 l/m SW 0,00 h 128 W/m 7,1 km/h (2 Bft)
01.05.2014 10:00 11,5 C 92 % 1011,4 hPa 0,0 l/m SW 0,33 h 373 W/m 9,5 km/h (2 Bft)
01.05.2014 11:00 12,7 C 83 % 1011,2 hPa 0,0 l/m W-SW 0,25 h 352 W/m 10,2 km/h (2 Bft)
01.05.2014 12:00 13,6 C 80 % 1010,9 hPa 0,0 l/m SW 0,00 h 249 W/m 13,3 km/h (3 Bft)
01.05.2014 13:00 13,6 C 80 % 1010,6 hPa 0,0 l/m SW 0,08 h 345 W/m 14,2 km/h (3 Bft)
01.05.2014 14:00 14,7 C 72 % 1010,0 hPa 0,0 l/m W-SW 0,17 h 321 W/m 11,6 km/h (2 Bft)
01.05.2014 15:00 15,4 C 67 % 1009,1 hPa 0,0 l/m W 0,33 h 418 W/m 11,1 km/h (2 Bft)
01.05.2014 16:00 15,2 C 69 % 1008,6 hPa 0,0 l/m W-NW 0,08 h 237 W/m 9,9 km/h (2 Bft)
01.05.2014 17:00 15,7 C 66 % 1008,1 hPa 0,0 l/m N-NW 0,50 h 320 W/m 8,0 km/h (2 Bft)
01.05.2014 18:00 15,2 C 68 % 1007,7 hPa 0,0 l/m W-NW 0,42 h 153 W/m 9,0 km/h (2 Bft)
01.05.2014 19:00 12,7 C 80 % 1007,9 hPa 2,6 l/m W-NW 0,00 h 42 W/m 13,7 km/h (3 Bft)
01.05.2014 20:00 10,7 C 95 % 1008,2 hPa 0,0 l/m N 0,00 h 16 W/m 0,7 km/h (0 Bft)
01.05.2014 21:00 9,7 C 97 % 1008,7 hPa 0,0 l/m NW 0,00 h 0 W/m 0,3 km/h (0 Bft)
01.05.2014 22:00 9,7 C 98 % 1009,0 hPa 0,0 l/m N 0,00 h 0 W/m 0,0 km/h (0 Bft)
01.05.2014 23:00 9,9 C 98 % 1008,6 hPa 0,0 l/m N 0,00 h 0 W/m 0,0 km/h (0 Bft)
02.05.2014 00:00 9,4 C 98 % 1008,6 hPa 0,0 l/m N 0,00 h 0 W/m 0,8 km/h (0 Bft)
02.05.2014 01:00 8,9 C 98 % 1008,7 hPa 0,0 l/m N 0,00 h 0 W/m 0,4 km/h (0 Bft)
02.05.2014 02:00 8,9 C 99 % 1008,4 hPa 0,2 l/m NW 0,00 h 0 W/m 1,9 km/h (1 Bft)
02.05.2014 03:00 9,1 C 99 % 1008,1 hPa 2,2 l/m N 0,00 h 0 W/m 1,7 km/h (1 Bft)
02.05.2014 04:00 9,1 C 99 % 1007,9 hPa 0,6 l/m N 0,00 h 0 W/m 0,1 km/h (0 Bft)
02.05.2014 05:00 9,0 C 99 % 1007,8 hPa 1,6 l/m NW 0,00 h 0 W/m 3,2 km/h (1 Bft)
02.05.2014 06:00 8,9 C 99 % 1007,9 hPa 0,2 l/m N 0,00 h 7 W/m 1,5 km/h (1 Bft)
02.05.2014 07:00 9,0 C 99 % 1008,2 hPa 0,0 l/m N 0,00 h 32 W/m 0,1 km/h (0 Bft)
02.05.2014 08:00 9,6 C 99 % 1008,5 hPa 0,0 l/m NW 0,00 h 78 W/m 2,0 km/h (1 Bft)
02.05.2014 09:00 10,1 C 97 % 1008,7 hPa 0,0 l/m NW 0,00 h 84 W/m 4,0 km/h (1 Bft)
02.05.2014 10:00 11,0 C 94 % 1009,1 hPa 0,0 l/m NW 0,00 h 160 W/m 4,1 km/h (1 Bft)
02.05.2014 11:00 12,4 C 87 % 1009,3 hPa 0,0 l/m NO 0,00 h 281 W/m 7,6 km/h (2 Bft)
02.05.2014 12:00 13,1 C 83 % 1009,5 hPa 0,0 l/m N-NO 0,00 h 319 W/m 11,8 km/h (2 Bft)
02.05.2014 13:00 13,4 C 80 % 1009,2 hPa 0,0 l/m N-NO 0,00 h 208 W/m 15,7 km/h (3 Bft)
02.05.2014 14:00 13,9 C 76 % 1009,3 hPa 0,0 l/m NO 0,08 h 264 W/m 14,4 km/h (3 Bft)
02.05.2014 15:00 13,6 C 77 % 1009,3 hPa 0,2 l/m NO 0,00 h 116 W/m 17,0 km/h (3 Bft)
02.05.2014 16:00 11,0 C 93 % 1009,4 hPa 2,6 l/m N-NO 0,00 h 56 W/m 6,3 km/h (2 Bft)
02.05.2014 17:00 11,9 C 94 % 1009,5 hPa 0,0 l/m SO 0,08 h 143 W/m 5,6 km/h (1 Bft)
02.05.2014 18:00 11,7 C 91 % 1010,1 hPa 0,0 l/m O-SO 0,00 h 54 W/m 4,8 km/h (1 Bft)
02.05.2014 19:00 11,3 C 94 % 1010,8 hPa 0,0 l/m O 0,00 h 47 W/m 5,2 km/h (1 Bft)
02.05.2014 20:00 10,7 C 92 % 1011,7 hPa 0,0 l/m O-NO 0,00 h 6 W/m 3,8 km/h (1 Bft)
02.05.2014 21:00 10,2 C 95 % 1012,2 hPa 0,0 l/m N 0,00 h 0 W/m 2,4 km/h (1 Bft)
02.05.2014 22:00 10,2 C 94 % 1012,5 hPa 0,0 l/m N 0,00 h 0 W/m 10,6 km/h (2 Bft)
02.05.2014 23:00 10,0 C 93 % 1012,8 hPa 0,0 l/m N-NO 0,00 h 0 W/m 11,0 km/h (2 Bft)
03.05.2014 00:00 9,5 C 94 % 1013,0 hPa 0,0 l/m N-NO 0,00 h 0 W/m 11,0 km/h (2 Bft)
03.05.2014 01:00 9,3 C 95 % 1013,0 hPa 0,0 l/m N-NO 0,00 h 0 W/m 12,1 km/h (2 Bft)
03.05.2014 02:00 8,8 C 92 % 1013,1 hPa 0,0 l/m N-NO 0,00 h 0 W/m 15,6 km/h (3 Bft)
03.05.2014 03:00 7,8 C 90 % 1013,4 hPa 0,0 l/m NO 0,00 h 0 W/m 13,2 km/h (3 Bft)
03.05.2014 04:00 6,9 C 92 % 1013,7 hPa 0,0 l/m NO 0,00 h 0 W/m 15,2 km/h (3 Bft)
03.05.2014 05:00 6,2 C 93 % 1013,9 hPa 0,0 l/m NO 0,00 h 0 W/m 14,4 km/h (3 Bft)
03.05.2014 06:00 5,7 C 93 % 1014,6 hPa 0,0 l/m O-NO 0,00 h 5 W/m 14,2 km/h (3 Bft)
03.05.2014 07:00 5,2 C 93 % 1015,5 hPa 0,0 l/m NO 0,00 h 10 W/m 14,6 km/h (3 Bft)
03.05.2014 08:00 5,0 C 93 % 1016,1 hPa 0,0 l/m N-NO 0,00 h 32 W/m 15,7 km/h (3 Bft)
03.05.2014 09:00 5,0 C 91 % 1016,6 hPa 0,0 l/m NO 0,00 h 46 W/m 17,3 km/h (3 Bft)
03.05.2014 10:00 5,1 C 89 % 1017,1 hPa 0,0 l/m NO 0,00 h 72 W/m 16,0 km/h (3 Bft)
03.05.2014 11:00 5,2 C 88 % 1017,8 hPa 0,0 l/m NO 0,00 h 96 W/m 15,8 km/h (3 Bft)
03.05.2014 12:00 5,1 C 89 % 1018,1 hPa 0,0 l/m N-NO 0,00 h 87 W/m 14,4 km/h (3 Bft)
03.05.2014 13:00 5,5 C 86 % 1018,3 hPa 0,0 l/m NO 0,00 h 81 W/m 11,4 km/h (2 Bft)
03.05.2014 14:00 5,7 C 87 % 1018,8 hPa 0,0 l/m N-NO 0,00 h 67 W/m 13,3 km/h (3 Bft)
03.05.2014 15:00 5,4 C 89 % 1018,9 hPa 0,0 l/m NO 0,00 h 73 W/m 14,4 km/h (3 Bft)
03.05.2014 16:00 5,9 C 86 % 1018,9 hPa 0,0 l/m NO 0,00 h 60 W/m 13,2 km/h (3 Bft)
03.05.2014 17:00 5,8 C 86 % 1019,1 hPa 0,0 l/m N-NO 0,00 h 38 W/m 11,9 km/h (2 Bft)
03.05.2014 18:00 5,9 C 85 % 1019,4 hPa 0,0 l/m N-NO 0,00 h 25 W/m 10,9 km/h (2 Bft)
03.05.2014 19:00 6,0 C 85 % 1019,9 hPa 0,0 l/m NO 0,00 h 12 W/m 8,0 km/h (2 Bft)
03.05.2014 20:00 5,8 C 86 % 1020,1 hPa 0,0 l/m NO 0,00 h 6 W/m 8,2 km/h (2 Bft)
03.05.2014 21:00 5,6 C 86 % 1020,6 hPa 0,0 l/m N-NO 0,00 h 0 W/m 9,5 km/h (2 Bft)
03.05.2014 22:00 5,5 C 86 % 1020,8 hPa 0,0 l/m N-NO 0,00 h 0 W/m 10,6 km/h (2 Bft)
03.05.2014 23:00 5,3 C 87 % 1021,1 hPa 0,0 l/m N-NO 0,00 h 0 W/m 8,2 km/h (2 Bft)
04.05.2014 00:00 5,2 C 87 % 1021,2 hPa 0,0 l/m N-NO 0,00 h 0 W/m 9,4 km/h (2 Bft)
04.05.2014 01:00 5,2 C 87 % 1021,1 hPa 0,0 l/m O-NO 0,00 h 0 W/m 13,2 km/h (3 Bft)
04.05.2014 02:00 5,0 C 88 % 1020,9 hPa 0,0 l/m O-NO 0,00 h 0 W/m 9,5 km/h (2 Bft)
04.05.2014 03:00 4,8 C 90 % 1020,5 hPa 0,0 l/m O-NO 0,00 h 0 W/m 6,7 km/h (2 Bft)
04.05.2014 04:00 4,6 C 91 % 1020,3 hPa 0,0 l/m O-NO 0,00 h 0 W/m 4,1 km/h (1 Bft)
04.05.2014 05:00 4,5 C 91 % 1020,2 hPa 0,0 l/m O-NO 0,00 h 0 W/m 9,3 km/h (2 Bft)
04.05.2014 06:00 4,6 C 90 % 1020,4 hPa 0,0 l/m O-NO 0,00 h 11 W/m 8,3 km/h (2 Bft)
04.05.2014 07:00 4,8 C 89 % 1020,7 hPa 0,0 l/m O-NO 0,00 h 40 W/m 8,0 km/h (2 Bft)
04.05.2014 08:00 5,4 C 87 % 1021,0 hPa 0,0 l/m O-NO 0,00 h 117 W/m 12,4 km/h (3 Bft)
04.05.2014 09:00 7,0 C 79 % 1021,0 hPa 0,0 l/m O-NO 0,50 h 322 W/m 16,5 km/h (3 Bft)
04.05.2014 10:00 8,8 C 68 % 1021,1 hPa 0,0 l/m O 0,42 h 481 W/m 23,6 km/h (4 Bft)
04.05.2014 11:00 8,9 C 64 % 1021,0 hPa 0,0 l/m O-SO 0,08 h 283 W/m 20,6 km/h (4 Bft)
04.05.2014 12:00 9,2 C 62 % 1021,0 hPa 0,0 l/m O-SO 0,00 h 288 W/m 18,6 km/h (3 Bft)
04.05.2014 13:00 10,5 C 57 % 1020,6 hPa 0,0 l/m O-SO 0,25 h 484 W/m 17,7 km/h (3 Bft)
04.05.2014 14:00 11,0 C 54 % 1020,2 hPa 0,0 l/m NO 0,58 h 689 W/m 16,6 km/h (3 Bft)
04.05.2014 15:00 12,2 C 50 % 1019,8 hPa 0,0 l/m O 0,83 h 721 W/m 17,2 km/h (3 Bft)
04.05.2014 16:00 12,6 C 46 % 1019,4 hPa 0,0 l/m O 1,00 h 664 W/m 14,9 km/h (3 Bft)
04.05.2014 17:00 12,8 C 46 % 1019,2 hPa 0,0 l/m O 0,92 h 501 W/m 12,8 km/h (3 Bft)
04.05.2014 18:00 12,6 C 48 % 1019,0 hPa 0,0 l/m O 1,00 h 321 W/m 13,4 km/h (3 Bft)
04.05.2014 19:00 11,6 C 50 % 1018,9 hPa 0,0 l/m O 0,58 h 104 W/m 10,6 km/h (2 Bft)
04.05.2014 20:00 9,1 C 65 % 1018,9 hPa 0,0 l/m O 0,00 h 10 W/m 2,9 km/h (1 Bft)
04.05.2014 21:00 6,3 C 77 % 1018,9 hPa 0,0 l/m N 0,00 h 0 W/m 0,3 km/h (0 Bft)
04.05.2014 22:00 4,8 C 84 % 1018,8 hPa 0,0 l/m N 0,00 h 0 W/m 0,1 km/h (0 Bft)
04.05.2014 23:00 4,1 C 87 % 1018,6 hPa 0,0 l/m N 0,00 h 0 W/m 0,0 km/h (0 Bft)
Min-Datum _ 04.05.14 04.05.14 30.04.14 - - - - 28.04.14
_ Min-Zeit 23:50 16:15 06:40 - - - - 04:55
Minimum _ 3,7 C 44 % 1007,0 hPa - - - - 0,0 km/h (0 Bft)
Max-Datum _ 01.05.14 29.04.14 03.05.14 01.05.14 - 29.04.14 04.05.14 30.04.14
_ Max-Zeit 15:55 09:55 23:25 19:25 - 14:35 13:45 13:35
Maximum _ 16,1 C 100 % 1021,3 hPa 2,6 l/m - 0,08 h 1097 W/m 29,0 km/h
SW (5 Bft)
Durchschnitt _ 9,0 C 90 % 1012,1 hPa #23,6 l/m SW #11:35 h 145 W/m 8,1 km/h (2 Bft)